Regional Weather Roundup
Issued by NWS

Home | Current Version | Previous Version | Graphics & Text | Print | Product List | Glossary On
Versions: 1 2 3 4 5 6 7 8 9 10 11 12 13 14 15 16 17 18 19 20 21 22 23 24 25 26 27 28 29 30 31 32 33 34 35 36 37 38 39 40 41 42 43 44 45 46 47 48 49 50
000
ASUS45 KSLC 081410
RWRUT

UTAH REGIONAL WEATHER ROUNDUP
NATIONAL WEATHER SERVICE SALT LAKE CITY UT
700 AM MST THU DEC 08 2016

UTZ001>011-023>025-081500-

NORTHERN UTAH

CITY           SKY/WX    TMP DP  RH WIND       PRES   REMARKS
BRIGHAM CITY     N/A     16  10  75 NW3       30.30S
HILL AFB       CLOUDY    14   3  60 E18       30.26S WCI  -3
LOGAN          PTCLDY    11   7  84 CALM      30.32S
OGDEN          CLOUDY    18   7  62 S6        30.27F WCI  10
SALT LAKE CITY CLOUDY    22  11  62 SE3       30.29R
TOOELE VALLEY  CLOUDY    21  16  79 S3        30.29R
WENDOVER       CLOUDY    19   9  63 CALM      30.28R
HEBER CITY     CLOUDY    12   7  79 CALM      30.24S
WEST JORDAN    CLOUDY    21  16  79 E7        30.28R WCI  12

$$

UTZ011>015-024>027-081500-

CENTRAL/NORTHEAST UTAH

CITY           SKY/WX    TMP DP  RH WIND       PRES   REMARKS
PROVO AIRPORT  MOCLDY    19   9  63 CALM      30.30R
MOAB/CANYONLAN MOCLDY    21   7  54 SE6       30.33R WCI  13
DELTA          MOCLDY    19  10  68 CALM      30.25S
PRICE          CLOUDY    14  -2  49 CALM      30.26R
RICHFIELD      CLOUDY    19  12  73 CALM      30.29S
ROOSEVELT      CLOUDY    12   5  73 CALM      30.37R
VERNAL         CLOUDY    11   2  67 CALM      30.34R

$$

UTZ013>016-019>022-027-081500-

SOUTHERN UTAH

CITY           SKY/WX    TMP DP  RH WIND       PRES   REMARKS
BRYCE CANYON   CLOUDY    14   8  77 CALM      30.20R
CEDAR CITY     CLOUDY    20  11  68 SE5       30.19R WCI  13
MILFORD        CLOUDY    19   8  62 S5        30.23R WCI  12
ST GEORGE      MOSUNNY   28  10  47 SW3       30.30R
HANKSVILLE     CLOUDY    18   7  62 CALM      30.37R
KANAB          CLOUDY    30   7  37 N7        30.30R WCI  23
BLANDING       CLOUDY    22   6  50 CALM      30.35R

$$

REGIONAL REPORTS     COLORADO/ARIZONA

CITY           SKY/WX    TMP DP  RH WIND       PRES   REMARKS
CRAIG, CO      CLOUDY    -3 -10  72 W3        30.31R
GRAND JUNCTION CLOUDY    17   7  64 E8        30.34R WCI   7
RIFLE, CO      CLOUDY    10   3  73 CALM      30.36R
MONTROSE, CO   CLOUDY    15   7  70 E5        30.35R WCI   8
CORTEZ, CO     CLOUDY    15   6  67 CALM      30.29R
COLORADO CITY  CLOUDY    32   9  37 NE12G18   30.26R WCI  23
PAGE, AZ       MOCLDY    28   7  41 NW3       30.30R
GRAND CANYON   CLOUDY    23  13  65 NE5       30.23R WCI  17
KINGMAN, AZ    CLEAR     27   9  46 CALM      30.21R
FLAGSTAFF, AZ  CLEAR     15  12  88 CALM      30.20S

$$

REGIONAL REPORTS    NEVADA/IDAHO/WYOMING

CITY           SKY/WX    TMP DP  RH WIND       PRES   REMARKS
LAS VEGAS, NV  PTCLDY    36   9  32 CALM      30.24R
ELY, NY        CLOUDY    19  12  74 CALM      30.15R
ELKO, NV       LGT SNOW  20  13  74 NE8       30.15R WCI  10
POCATELLO, ID  CLOUDY    -5  -8  87 CALM      30.30S
BURLEY, ID     MOCLDY    10   5  80 E16       30.24F WCI  -7
FORT BRIDGER,  PTSUNNY   -5  -8  86 CALM      30.24S
EVANSTON, WY   CLOUDY     2  -6  69 E12       30.17S WCI -15
ROCK SPRINGS,  CLOUDY    -8 -13  78 CALM      30.24R
KEMMERER, WY     N/A     -8 -13  77 N9        30.20R WCI -25

$$



USA.gov is the U.S. government's official web portal to all federal, state and local government web resources and services.